Regional Weather Roundup
Issued by NWS Wakefield, VA

Home | Current Version | Previous Version | Text Only | Print | Product List | Glossary Off
Versions: 1 2 3 4 5 6 7 8 9 10 11 12 13 14 15 16 17 18 19 20 21 22 23 24 25 26 27 28 29 30 31 32 33 34 35 36 37 38 39 40 41 42 43 44 45 46 47 48 49 50

000
ASUS41 KAKQ 021615
RWRAKQ

REGIONAL WEATHER ROUNDUP
NATIONAL WEATHER SERVICE WAKEFIELD VA
1200 PM EDT THU JUL 02 2015

Note: "fair" indicates few or no clouds below 12,000 feet with no
significant weather and/or obstructions to visibility. * = Denotes
station may not report precipitation (e.g., rain,snow,etc.),
thunder or fog.

VAZ042-051-052>054-056-021700-
NORTHERN VIRGINIA

CITY           SKY/WX    TMP DP  RH WIND       PRES   REMARKS
WASH NATIONAL  CLOUDY    74  65  73 N7        29.90F
DULLES         CLOUDY    73  61  65 N8        29.91S
FORT BELVOIR   PTSUNNY   71  65  80 VRB2      29.90S
QUANTICO       CLOUDY    74  62  66 NE10      29.90F
FREDERICKSBRG* NOT AVBL
STAFFORD*      NOT AVBL
WARRENTON      NOT AVBL
CULPEPER*      NOT AVBL
MANASSAS*      CLOUDY    72  68  88 CALM      29.91S
LEESBURG*      NOT AVBL
WINCHESTER     NOT AVBL
FRONT ROYAL*   CLOUDY    68  66  94 CALM      29.93
LURAY*         NOT AVBL
$$

VAZ048-049-060>072-079>083-021700-
CENTRAL AND SOUTH CENTRAL VIRGINIA

CITY           SKY/WX    TMP DP  RH WIND       PRES   REMARKS
RICHMOND       CLOUDY    81  70  69 SW8       29.87F
CHESTERFIELD*  NOT AVBL
PETERSBURG*    NOT AVBL
HANOVER        PTSUNNY   80  72  76 VRB5      29.89S HAZE
TAPPAHANNOCK*  NOT AVBL
QUINTON*       CLOUDY    79  72  78 S3        29.87
CHARLOTTSVILLE CLOUDY    75  62  64 N7        29.92S
GORDONSVILLE*  CLOUDY    75  64  69 NE6       29.91R
ORANGE*        NOT AVBL
LOUISA*        NOT AVBL
BUMPASS*       NOT AVBL
FARMVILLE*     NOT AVBL
CREWE*         NOT AVBL
FORT PICKETT*  NOT AVBL
CHASE CITY*    FAIR      81  72  74 SW3       29.90
CLARKSVILLE*   FAIR      81  68  65 SW8       29.91
SOUTH HILL*    NOT AVBL
LAWRENCEVILLE* NOT AVBL
EMPORIA*       NOT AVBL
$$

VAZ088>098-021700-
SOUTHEAST VIRGINIA

CITY           SKY/WX    TMP DP  RH WIND       PRES   REMARKS
NORFOLK        CLOUDY    82  71  69 SW12      29.87F
VIRGINIA BEACH CLOUDY    87  73  62 SW12      29.87F
NORFOLK NAVAL  CLOUDY    81  72  74 SW10      29.88F HAZE
WEST POINT*    NOT AVBL
SALUDA*        FAIR      81  73  76 SW5       29.86
NEWPORT NEWS   CLOUDY    80  73  79 SW10      29.87F HAZE
LANGLEY AFB    CLOUDY    81  73  76 S13       29.85F
FORT EUSTIS    CLOUDY    80  77  91 SW5       29.85F
WILLIAMSBURG*  NOT AVBL
HR EXEC AP*    FAIR      81  72  74 SW6       29.90S
FRANKLIN*      NOT AVBL
WAKEFIELD      CLOUDY    79  72  79 VRB7      29.88F HAZE
$$

VAZ020-022-025-037-045-021700-
WEST CENTRAL AND SOUTHWEST VIRGINIA

CITY           SKY/WX    TMP DP  RH WIND       PRES   REMARKS
STAUNTON*      NOT AVBL
WAYNESBORO*    NOT AVBL
HOT SPRINGS VA CLOUDY    64  64 100 CALM      30.04R FOG
LYNCHBURG      PTSUNNY   77  62  59 E3        29.94R
DANVILLE       MOSUNNY   81  67  62 W8        29.92S
SOUTH BOSTON*  NOT AVBL
MARTINSVILLE   PTSUNNY   81  65  58 NW7       29.96F
ROANOKE        PTSUNNY   76  65  68 W7        29.96S
BLACKSBURG     NOT AVBL
DUBLIN*        NOT AVBL
MARION*        NOT AVBL
HILLSVILLE*    NOT AVBL
RICHLANDS*     NOT AVBL
WISE*          DRIZZLE   64  64 100 SW6       30.04
ABINGDON*      NOT AVBL
$$

MDZ021>025-VAZ099-100-021700-
SOUTHERN MARYLAND AND THE DELMARVA PENINSULA

CITY           SKY/WX    TMP DP  RH WIND       PRES   REMARKS
PATUXENT RIVER LGT RAIN  74  69  85 N9        29.87F
BAY BRIDGE APT   N/A     72  64  78 NE7       29.89F
LEONARDTOWN    PTSUNNY   73  64  73 N6        29.89F
DOVER          LGT RAIN  70  70 100 NE6       29.87F
GEORGETOWN     RAIN      67  65  93 NE16G29   29.88F FOG
EASTON         CLOUDY    72  72 100 NE6       29.92F FOG
CAMBRIDGE        N/A     72  68  88 N7        29.87F
SALISBURY      CLOUDY    71  68  90 N14G24    29.86R
OCEAN CITY     PTSUNNY   77  72  84 SW10      29.86R HAZE
WALLOPS ISLAND PTSUNNY   83  77  82 S10       29.85F
ACCOMACK*      NOT AVBL
$$

NCZ012>017-030>032-021700-
NORTH CENTRAL AND EASTERN NORTH CAROLINA

CITY           SKY/WX    TMP DP  RH WIND       PRES   REMARKS
ROANOKE RAPIDS FAIR      84  70  61 SW9       29.90
RALEIGH        PTSUNNY   85  68  56 W9        29.93F
ELIZABETH CITY PTSUNNY   84  74  71 SW10      29.90F
AHOSKIE*       NOT AVBL
EDENTON*       NOT AVBL
CURRITUCK*     NOT AVBL
KILL DEVIL HLS NOT AVBL
MANTEO         NOT AVBL
CAPE HATTERAS  SUNNY     83  75  77 SW9       29.95S
TARBORO*       NOT AVBL
GOLDSBORO      PTSUNNY   83  68  58 W10       29.91S
WASHINGTON     SUNNY     85  71  62 SW8       29.92
GREENVILLE     MOSUNNY   88  70  55 W9G18     29.93F
NEW BERN       MOSUNNY   87  70  56 SW10      29.95S
WILMINGTON     SUNNY     87  70  56 SW13      29.97R
$$

VAZ048-021700-
ELSEWHERE

CITY           SKY/WX    TMP DP  RH WIND       PRES   REMARKS
HARRISBURG PA  PTSUNNY   76  62  62 S3        29.90S
BALTIMORE      CLOUDY    72  65  78 NE5       29.90S
ANNAPOLIS      CLOUDY    72  66  81 N7        29.89F
ANDREWS AFB    PTSUNNY   70  66  86 N7        29.90S
PHILADELPHIA   CLOUDY    73  62  68 NE8       29.91S
HENDERSON NC   PTSUNNY   81  65  56 SW9       29.92
GREENSBORO     CLOUDY    82  64  54 W10G18    29.93F
ROCKY MOUNT    PTSUNNY   83  70  64 W10       29.92S
$$

VAZ100-021700-
MARINE

STATION/POSITION TIME  TEMP    WIND        PRES    WAVE   SWELL
                       AIR SEA DIR/SP/G            HT/PER HT/PER
                 (UTC) (F)     (DEG/KT/KT) (MB)    (FT/S) (FT/S)
BRANDYWINE LGT   1500   69 73   30/ 15/ 17 1012.1F
CAPE MAY NJ      1500   69 77   10/  5/  9 1011.7R
LEWES DE         1500   69 73   30/ 16/ 17 1011.6F
15NM E FENWICK I 1550   72 74              1010.9R   4/ 8
OCEAN-CITY-INLET 1500   74 70  220/ 11/ 13 1010.8F
WACHAPREAGUE VA  1500   80 79  230/  7/ 10 1011.3F
THOMAS POINT MD  1600           30/ 13       N/A
GOOSES REEF MD   1600   74 78   60/ 12/ 14 1012.8F
COVE POINT MD    1500   70      30/ 12/ 15 1012.5F
SOLOMONS ISLAND  1500      79                N/A
BISHOPS HEAD MD  1500   72     360/ 10/ 14 1011.2R
PINEY POINT MD   1500           40/ 11/ 13   N/A
CAMBRIDGE MD     1500   69 79   50/ 10/ 11 1011.9R
LEWISETTA VA     1500   74 81   30/  6/ 10 1011.2F
RAPPAHANNOCK LGT 1500          200/ 12/ 13 1011.6F
STINGRAY PT      1600   80 81  230/  4/  6 1011.2F   1
YORK RVR RNG VA  1500   79     240/  9/ 10 1010.9F
YORKTOWN VA      1500   78 79  240/  8/ 11 1011.1F
JAMESTOWN VA     1600   79 82  210/  8/ 10   N/A
DOMINION TERM VA 1500   78     220/ 11/ 12 1011.5F
KIPTOPEKE VA     1500      83  210/  9/ 11   N/A
CHES BAY BRIDGE  1500   79 76  200/ 11/ 13 1011.3F
CAPE HENRY VA    1500   80     210/  7/ 12 1010.2F
CHESAPEAKE LGHT  1500   78     200/ 15/ 16 1012.5F
WILLOUBY STN VA  1500   79     210/ 11/ 12 1012.5F
CAPE HENRY BUOY  1528      77                N/A     3/ 8
1ST LANDING BUOY 1600      77              1011.2F   1/ 3
CAPE CHARLES BUO 1526      76                N/A     3/ 8   2/ 8
OFFSHORE WE BUOY 1511      78                N/A     4/ 8   3/ 8
64NM E OF VA BCH 1550   78 77  190/ 12/ 12 1012.1F   5/ 8   5/ 8
DUCK PIER NC     1500   80 61  210/ 11/ 15 1012.0F
44100 DUCK FRF   1524      78                N/A     3/ 8
44056 DUCK FRF   1511      72                N/A     2/ 8
OREGON INLET NC  1500   82 80  200/ 13/ 16 1013.3F
HATTERAS NC      1500   81 80  210/ 10/ 15 1013.9F
DIAMOND SHLS NC  1550   81 83  230/ 16/ 17 1014.2S   4/ 6   2/ 7
CAPE LOOKOUT NC  1600   83     240/ 13/ 16 1014.3R
$$



USA.gov is the U.S. government's official web portal to all federal, state and local government web resources and services.